Showing default

LEAP-1, 65321

Orbit data source: Space-Track

LEAP-1, 65321 is a payload satellite owned by Dhruva Space (IN) in SSO that was launched on Tue, 26 Aug 2025 UTC via an FALCON 9 launch vehicle from the Air Force Western Test Range (AFWTR). Payload-class satellites include a variety of spacecraft equipped with specific instruments for various scientific and technological missions. These include communications satellites like Starlink; space stations such as the ISS; scientific satellites like the Hubble; Earth observation satellites from companies like Planet Labs, Umbra, and HawkEye 360; GPS; miniature CubeSats for education and research; and military/defense satellites.

Loading next visibility...
Identifier
65321, 2025-188G
Orbit
SSO
Country
Flag of ININ / IND
Related business
Manufacturer
Dhruva Space
Mission
Operational Commercial Technology
Bus & Motor
P-30, Unknown motor
Mass
~25 kg wet, ~25 kg dry
Launch date (UTC)
2025-08-26 (10 months ago)
Launch vehicle
FALCON 9
Launch site
Air Force Western Test Range (AFWTR)
Object type
Payload
Rocket body
Debris
Shape & HBR
Box + 2 Pan, 14.5 m
Radar Cross Section
0.237 m², Medium (>0.1 m² and < 1m²)

Expand to show TLE details & history
Last TLE update: 10 hours ago

TLE from 10 hours ago
0 LEAP-1
1 65321U 25188G   26171.54487208  .00001818  00000-0  18692-3 0  9993
2 65321  97.7366 245.8744 0003135 170.1588 189.9693 14.91542729 44358
Epoch: 2026-06-20T13:04Z
TLE epoch observation values (Epoch: 2026-06-20T13:04:36.947Z)
Latitude
-0°
Longitude
140.96249°
Altitude
598.32 km
Speed
7.559 km/s
True Right ascension
16h 23m 29s
True Declination
0° 00' 00"
Sunlit
Object was in full shadow at epoch
Visualization orbit readout
Latitude
Unknown
Longitude
Unknown
Altitude
Unknown
Speed
Unknown
Apparent Right ascension
Unknown
Apparent Declination
Unknown
Sunlit
N/A
Visualization observer readout
Local Sidereal Time
10:18:07
Azimuth
Unknown
Elevation
Unknown
Doppler factor
Unknown
Orbital elements
Apogee altitude
592.327 km
Perigee altitude
587.958 km
Semi-major axis
6,968.28 km
Eccentricity
0.00031
Inclination
97.7366°
RAAN
245.8744°
Arg. of periapsis
170.1588°
True anomaly
189.96308°
Mean anomaly
189.9693°
Eccentric anomaly
189.96619°
Mean motion
3.73125 °/min
Orbital period
96.48 mins
BSTAR
0.00018692
Loading maneuver chart data...
Computing Atmospheric mass density...
Loading historical data...
Loading historical data...
Loading historical data...
Loading historical data...
Loading historical data...
Loading historical data...
Loading historical data...

Documentation

Showing up to 5 results
|